PDT,Max TemperatureF,Mean TemperatureF,Min TemperatureF,Max Dew PointF,MeanDew PointF,Min DewpointF,Max Humidity, Mean Humidity, Min Humidity, Max Sea Level PressureIn, Mean Sea Level PressureIn, Min Sea Level PressureIn, Max VisibilityMiles, Mean VisibilityMiles, Min VisibilityMiles, Max Wind SpeedMPH, Mean Wind SpeedMPH, Max Gust SpeedMPH,PrecipitationIn, CloudCover, Events, WindDirDegrees
2010-10-1,86,70,54,50,49,47,77,52,27,30.02,29.97,29.89,10,10,10,14,4,17,0.00,0,,197
2010-10-2,84,68,51,51,47,42,77,53,28,30.06,29.93,29.78,10,10,10,9,2,10,0.00,0,,188
2010-10-3,74,67,59,56,50,42,84,63,41,29.91,29.84,29.77,10,10,10,14,4,15,0.11,3,Rain,162
2010-10-4,62,57,51,57,51,40,93,68,43,30.11,29.96,29.88,10,10,10,10,4,13,0.22,7,Rain,197
2010-10-5,68,58,48,45,43,40,80,60,40,30.35,30.27,30.13,10,10,10,8,3,12,0.00,0,,156
2010-10-6,71,58,45,50,46,41,93,69,44,30.26,30.09,29.92,10,10,10,8,1,10,0.00,1,,96
2010-10-7,64,60,55,57,52,48,93,83,72,30.04,29.97,29.90,10,10,10,31,5,35,0.18,7,Rain-Thunderstorm,17
2010-10-8,62,56,50,54,51,47,93,79,64,30.21,30.14,30.04,10,10,9,9,5,13,0.05,6,Rain,70
2010-10-9,71,61,50,54,50,47,83,65,47,30.30,30.23,30.19,10,10,10,15,5,18,T,3,Rain,75
2010-10-10,72,64,55,60,55,42,84,71,57,30.22,30.12,30.04,10,10,10,24,7,30,0.09,7,Rain,349
2010-10-11,60,51,41,42,36,30,71,52,33,30.47,30.36,30.18,10,10,10,17,5,37,0.00,3,,306
2010-10-12,62,49,36,41,37,33,85,64,43,30.52,30.44,30.37,10,10,9,12,5,14,0.00,0,Snow,106
2010-10-13,71,56,40,40,38,36,79,55,31,30.37,30.27,30.14,10,10,9,14,7,16,0.00,0,,95
2010-10-14,69,57,44,43,41,39,77,56,35,30.17,30.09,30.00,10,10,9,7,3,8,0.00,0,,95
2010-10-15,60,51,41,43,34,28,74,52,29,30.27,30.19,30.03,10,10,9,26,8,35,0.00,2,,296
2010-10-16,57,47,36,34,32,30,79,61,43,30.20,30.15,30.11,10,10,10,7,2,9,0.00,0,,234
2010-10-17,61,48,34,36,31,26,89,59,29,30.27,30.21,30.17,10,10,10,10,2,13,0.00,0,,207
2010-10-18,59,47,34,33,30,27,82,55,28,30.34,30.28,30.23,10,10,10,6,2,8,0.00,0,,115
2010-10-19,62,49,35,36,32,29,82,55,27,30.31,30.22,30.12,10,10,8,7,3,8,0.00,0,,144
2010-10-20,66,52,37,39,36,33,85,60,34,30.12,30.03,29.93,10,10,8,8,3,10,0.00,0,,120
2010-10-21,65,53,40,41,38,37,89,63,37,29.94,29.88,29.79,10,10,10,7,2,28,0.00,0,,200
2010-10-22,66,54,42,42,40,37,83,62,40,29.97,29.88,29.81,10,10,9,8,3,12,0.00,3,,235
2010-10-23,54,50,46,47,45,41,93,82,71,29.86,29.81,29.69,10,9,4,13,4,16,0.03,6,Rain,95
2010-10-24,59,53,46,45,41,33,86,69,52,29.66,29.48,29.37,10,10,10,29,7,37,0.03,6,Rain,165
2010-10-25,52,48,44,36,34,32,65,57,48,29.82,29.73,29.56,10,10,10,25,11,39,T,7,Rain,189
2010-10-26,49,46,42,37,34,29,71,62,53,30.11,29.95,29.81,10,10,10,14,4,18,0.01,8,Rain,105
2010-10-27,58,49,40,41,36,31,89,64,39,30.27,30.19,30.13,10,10,10,14,7,20,0.01,3,,91
2010-10-28,52,48,43,44,38,33,89,71,52,30.14,30.09,30.03,10,10,9,21,7,26,0.08,4,Rain,105
2010-10-29,55,45,42,45,43,40,100,93,86,30.12,30.06,30.01,10,6,1,8,1,8,0.06,6,Rain,22
2010-10-30,48,46,43,44,41,37,100,88,76,30.00,29.91,29.85,10,9,6,13,4,15,0.11,8,Rain,75
2010-10-31,60,53,45,48,43,36,93,66,39,30.25,30.03,29.91,10,7,1,9,3,12,0.22,6,Rain,84